SCP
0 0 0 0 0 0 0 0 0 0 0 0 0 0 0 0 0 0 0 0 0 0 0 0 0 0 0 0 0 0 0 0 0
0 0 0 0 0 0 0 0 0 0 0 0 0 0 0 0 0 0 0 0 0 0 0 0 0 0 0 0 0 0 0 0 0
0 0 0 0 0 0 0 0 0 0 0 0 0 0 0 0 0 0 0 0 0 0 0 0 0 0 0 0 0 0 0 0 0
0 0 0 0 0 0 0 0 0 0 0 0 0 0 0 0 0 0 0 0 0 0 0 0 0 0 0 0 0 0 0 0 0
0 0 0 0 0 0 0 0 0 0 0 0 0 0 0 0 0 0 0 0 0 0 0 0 0 0 0 0 0 0 0 0 0
0 0 0 0 0 0 0 0 0 0 0 0 0 0 0 0 0 0 0 0 0 0 0 0 0 0 0 0 0 0 0 0 0
0 0 0 0 0 0 0 0 0 0 0 0 0 0 0 0 0 0 0 0 0 0 0 0 0 0 0 0 0 0 0 0 0
0 0 0 0 0 0 0 0 0 0 0 0 0 0 0 0 0 0 0 0 0 0 0 0 0 0 0 0 0 0 0 0 0
0 0 0 0 0 0 0 0 0 0 0 0 0 0 0 0 0 0 0 0 0 0 0 0 0 0 0 0 0 0 0 0 0
0 0 0 0 0 0 0 0 0 0 0 0 0 0 0 0 0 0 0 0 0 0 0 0 0 0 0 0 0 0 0 0 0
0 0 0 0 0 0 0 0 0 0 0 0 0 0 0 0 0 0 0 0 0 0 0 0 0 0 0 0 0 0 0 0 0
0 0 0 0 0 0 0 0 0 0 0 0 0 0 0 0 0 0 0 0 0 0 0 0 0 0 0 0 -0 0 -0 0 0
0 0 0 0 0 0 0 0 0 0 0 0 0 0 0 0 0 0 0 0 0 0 0 0 0 0 0 0 -0 -0 -0 -0 0
0 0 0 0 0 0 0 0 0 0 0 0 0 0 0 0 0 0 0 0 0 0 0 0 0 0 0 0 0 -0 -0 -0 -0
0 0 0 0 0 0 0 0 0 0 0 0 0 0 0 0 0 0 0 0 0 0 0 0 0 0 0 0 0 0 -0 -0 0
0 0 0 0 0 0 0 0 0 0 0 0 0 0 0 0 0 0 0 0 0 0 -0 -0 0 0 0 0 0 0 0 -0 -0
0 0 0 0 0 0 0 0 0 0 0 0 0 0 0 0 0 0 0 0 0 0 0 -0 -0 0 0 0 0 0 0 0 -0
0 0 0 0 0 0 0 0 0 0 0 0 0 0 0 0 0 0 0 0 0 0 0 0 0 -0 0 0 0 0 0 0 0
0 0 0 0 0 0 0 0 0 0 0 0 0 0 0 0 0 0 0 0 0 0 0 0 0 0 0 0 0 0 0 0 0
0 0 0 0 0 0 0 0 0 0 0 0 0 0 0 0 0 0 0 0 0 0 0 0 0 0 0 0 0 0 0 0 0
Wind_Speed_500mb
36 40 32 26 28 28 23 30 31 31 37 43 35 35 36 31 34 35 34 35 30 29 27 28 25 21 24 30 39 37 34 30 26
38 44 38 38 36 33 27 27 26 28 34 39 48 42 36 41 39 38 39 41 38 34 34 35 30 23 23 28 32 34 36 33 32
43 48 46 41 35 33 27 30 29 29 29 34 40 53 44 42 44 47 45 41 44 44 41 39 39 30 26 27 32 30 33 33 33
45 46 46 47 47 39 29 26 29 31 31 26 30 31 48 52 47 44 49 50 48 48 47 42 47 39 32 31 33 32 33 33 33
53 51 48 40 46 51 52 34 18 26 32 38 39 35 35 42 59 48 42 50 57 53 50 49 51 51 42 38 36 35 35 37 36
59 59 53 45 41 40 52 52 43 27 26 42 41 39 35 34 38 58 49 49 46 57 55 58 52 53 52 45 44 40 41 41 40
63 58 55 50 49 50 46 47 51 51 44 45 41 42 40 37 36 35 49 45 53 49 59 58 58 58 59 56 51 49 47 46 47
52 55 54 53 54 52 49 49 51 49 53 56 54 44 46 47 42 39 37 39 41 51 54 42 66 66 61 62 58 54 53 54 51
56 58 55 53 51 48 49 47 51 55 53 52 56 58 45 48 49 46 40 38 37 40 45 59 57 63 59 59 64 63 60 58 58
54 52 49 47 45 45 47 48 48 51 47 53 49 44 54 49 44 47 45 42 40 37 41 48 57 57 57 68 50 60 77 70 61
57 58 55 51 46 44 44 47 47 49 46 45 48 41 48 52 48 41 39 42 43 42 43 43 45 48 56 72 86 45 44 87 73
60 60 58 55 51 47 47 48 46 49 48 49 43 38 42 47 49 49 37 35 37 44 45 44 45 48 52 60 70 95 61 77 71
52 59 62 61 60 54 52 48 50 51 51 53 50 51 48 50 51 50 52 44 39 39 45 48 48 50 52 53 52 56 76 72 27
49 51 51 54 64 70 66 61 55 56 55 56 52 51 53 48 44 43 44 50 50 45 40 46 50 49 51 51 47 47 48 64 62
45 51 52 51 51 54 59 61 61 57 52 55 59 53 56 51 48 47 45 42 42 43 45 44 44 45 43 44 42 29 24 33 48
46 47 50 54 54 50 49 52 52 54 54 54 59 59 53 58 52 53 49 43 37 38 40 43 45 42 36 34 32 30 24 17 37
47 44 46 46 52 56 52 52 55 53 49 51 52 54 58 60 55 52 49 45 40 33 32 37 40 37 35 31 32 32 24 28 23
47 44 41 43 44 51 53 51 48 57 55 49 48 21 30 42 58 56 53 47 35 32 32 33 26 28 34 31 32 31 32 28 31
40 41 43 46 45 47 50 49 49 46 55 48 52 61 28 35 42 53 50 44 38 34 32 30 24 18 24 24 24 30 32 32 36
41 41 40 41 44 42 45 44 45 47 53 56 33 54 70 57 24 23 49 42 36 33 31 29 29 27 21 23 21 22 28 32 31
Wind_Direction_500mb
306 289 284 283 318 325 290 266 269 269 256 253 249 250 247 247 248 244 233 229 230 226 219 221 235 241 233 227 224 228 230 231 219
316 278 276 274 266 280 280 305 280 262 260 262 253 250 244 240 236 241 247 239 235 234 233 231 231 238 235 228 224 228 229 225 220
306 293 287 276 279 284 305 294 303 286 273 260 254 250 246 245 239 235 234 240 244 240 241 237 231 236 235 228 228 230 220 217 212
305 297 288 284 282 282 302 298 294 293 285 288 264 258 243 244 248 240 238 237 238 237 241 245 231 232 233 232 232 231 225 216 214
298 295 294 286 277 278 276 281 286 287 284 272 260 261 259 246 245 248 245 242 237 239 238 240 236 232 230 230 231 232 227 218 215
293 294 291 290 295 282 266 272 272 244 255 265 264 261 258 260 255 245 250 252 244 239 240 236 238 235 232 226 228 227 225 216 221
287 289 290 286 281 279 274 261 258 262 255 252 253 262 262 258 256 255 252 251 250 243 241 240 242 241 236 230 224 225 219 221 218
287 279 276 279 278 273 272 265 258 256 255 262 263 265 262 260 256 254 250 247 247 247 245 248 235 236 235 232 232 230 227 222 221
286 284 282 278 278 276 267 265 256 253 257 253 259 263 266 266 259 255 251 252 249 244 246 245 248 240 232 236 240 233 232 229 225
288 287 285 279 275 274 268 261 261 252 254 254 253 253 257 265 264 261 252 254 250 245 242 246 247 249 227 233 226 223 234 232 228
288 286 285 278 277 274 268 262 257 255 250 247 245 244 254 253 262 265 261 257 254 250 247 246 250 249 241 237 239 218 244 223 227
283 282 280 278 274 269 268 265 260 258 249 248 237 233 241 253 259 261 267 263 267 258 256 253 252 249 248 256 252 243 253 224 223
298 281 276 275 275 271 268 263 256 255 251 247 245 240 237 254 263 267 264 270 273 273 262 260 262 260 257 260 275 281 260 263 258
309 305 294 281 275 273 267 264 262 261 256 252 247 244 236 237 254 262 268 267 269 275 269 263 265 271 269 267 270 281 282 275 264
309 303 302 300 291 281 275 269 261 257 256 254 253 248 238 236 243 250 255 262 265 264 265 269 267 272 276 273 272 272 297 271 254
307 300 297 298 295 295 285 276 265 257 251 253 255 251 249 240 235 240 246 253 255 267 267 270 271 266 269 265 261 249 248 282 265
314 302 296 292 292 292 286 280 268 258 249 252 257 263 253 240 228 232 238 246 260 264 259 268 272 265 252 248 246 249 240 231 228
313 304 296 288 285 283 285 281 272 257 252 247 236 226 232 244 232 230 238 243 254 245 261 266 263 254 233 235 242 245 245 235 223
312 304 295 291 285 277 276 278 274 259 250 244 239 233 241 214 216 227 223 237 238 239 253 254 244 221 213 221 230 242 247 249 242
341 329 316 303 283 276 268 274 267 261 253 242 241 231 228 234 221 211 219 214 224 236 246 240 261 256 230 209 216 236 248 256 253
Wind_Speed_850mb
36 40 32 26 28 28 23 30 31 31 37 43 35 35 36 31 34 35 34 35 30 29 27 28 25 21 24 30 39 37 34 30 26
38 44 38 38 36 33 27 27 26 28 34 39 48 42 36 41 39 38 39 41 38 34 34 35 30 23 23 28 32 34 36 33 32
43 48 46 41 35 33 27 30 29 29 29 34 40 53 44 42 44 47 45 41 44 44 41 39 39 30 26 27 32 30 33 33 33
45 46 46 47 47 39 29 26 29 31 31 26 30 31 48 52 47 44 49 50 48 48 47 42 47 39 32 31 33 32 33 33 33
53 51 48 40 46 51 52 34 18 26 32 38 39 35 35 42 59 48 42 50 57 53 50 49 51 51 42 38 36 35 35 37 36
59 59 53 45 41 40 52 52 43 27 26 42 41 39 35 34 38 58 49 49 46 57 55 58 52 53 52 45 44 40 41 41 40
63 58 55 50 49 50 46 47 51 51 44 45 41 42 40 37 36 35 49 45 53 49 59 58 58 58 59 56 51 49 47 46 47
52 55 54 53 54 52 49 49 51 49 53 56 54 44 46 47 42 39 37 39 41 51 54 42 66 66 61 62 58 54 53 54 51
56 58 55 53 51 48 49 47 51 55 53 52 56 58 45 48 49 46 40 38 37 40 45 59 57 63 59 59 64 63 60 58 58
54 52 49 47 45 45 47 48 48 51 47 53 49 44 54 49 44 47 45 42 40 37 41 48 57 57 57 68 50 60 77 70 61
57 58 55 51 46 44 44 47 47 49 46 45 48 41 48 52 48 41 39 42 43 42 43 43 45 48 56 72 86 45 44 87 73
60 60 58 55 51 47 47 48 46 49 48 49 43 38 42 47 49 49 37 35 37 44 45 44 45 48 52 60 70 95 61 77 71
52 59 62 61 60 54 52 48 50 51 51 53 50 51 48 50 51 50 52 44 39 39 45 48 48 50 52 53 52 56 76 72 27
49 51 51 54 64 70 66 61 55 56 55 56 52 51 53 48 44 43 44 50 50 45 40 46 50 49 51 51 47 47 48 64 62
45 51 52 51 51 54 59 61 61 57 52 55 59 53 56 51 48 47 45 42 42 43 45 44 44 45 43 44 42 29 24 33 48
46 47 50 54 54 50 49 52 52 54 54 54 59 59 53 58 52 53 49 43 37 38 40 43 45 42 36 34 32 30 24 17 37
47 44 46 46 52 56 52 52 55 53 49 51 52 54 58 60 55 52 49 45 40 33 32 37 40 37 35 31 32 32 24 28 23
47 44 41 43 44 51 53 51 48 57 55 49 48 21 30 42 58 56 53 47 35 32 32 33 26 28 34 31 32 31 32 28 31
40 41 43 46 45 47 50 49 49 46 55 48 52 61 28 35 42 53 50 44 38 34 32 30 24 18 24 24 24 30 32 32 36
41 41 40 41 44 42 45 44 45 47 53 56 33 54 70 57 24 23 49 42 36 33 31 29 29 27 21 23 21 22 28 32 31
Wind_Direction_850mb
306 289 284 283 318 325 290 266 269 269 256 253 249 250 247 247 248 244 233 229 230 226 219 221 235 241 233 227 224 228 230 231 219
316 278 276 274 266 280 280 305 280 262 260 262 253 250 244 240 236 241 247 239 235 234 233 231 231 238 235 228 224 228 229 225 220
306 293 287 276 279 284 305 294 303 286 273 260 254 250 246 245 239 235 234 240 244 240 241 237 231 236 235 228 228 230 220 217 212
305 297 288 284 282 282 302 298 294 293 285 288 264 258 243 244 248 240 238 237 238 237 241 245 231 232 233 232 232 231 225 216 214
298 295 294 286 277 278 276 281 286 287 284 272 260 261 259 246 245 248 245 242 237 239 238 240 236 232 230 230 231 232 227 218 215
293 294 291 290 295 282 266 272 272 244 255 265 264 261 258 260 255 245 250 252 244 239 240 236 238 235 232 226 228 227 225 216 221
287 289 290 286 281 279 274 261 258 262 255 252 253 262 262 258 256 255 252 251 250 243 241 240 242 241 236 230 224 225 219 221 218
287 279 276 279 278 273 272 265 258 256 255 262 263 265 262 260 256 254 250 247 247 247 245 248 235 236 235 232 232 230 227 222 221
286 284 282 278 278 276 267 265 256 253 257 253 259 263 266 266 259 255 251 252 249 244 246 245 248 240 232 236 240 233 232 229 225
288 287 285 279 275 274 268 261 261 252 254 254 253 253 257 265 264 261 252 254 250 245 242 246 247 249 227 233 226 223 234 232 228
288 286 285 278 277 274 268 262 257 255 250 247 245 244 254 253 262 265 261 257 254 250 247 246 250 249 241 237 239 218 244 223 227
283 282 280 278 274 269 268 265 260 258 249 248 237 233 241 253 259 261 267 263 267 258 256 253 252 249 248 256 252 243 253 224 223
298 281 276 275 275 271 268 263 256 255 251 247 245 240 237 254 263 267 264 270 273 273 262 260 262 260 257 260 275 281 260 263 258
309 305 294 281 275 273 267 264 262 261 256 252 247 244 236 237 254 262 268 267 269 275 269 263 265 271 269 267 270 281 282 275 264
309 303 302 300 291 281 275 269 261 257 256 254 253 248 238 236 243 250 255 262 265 264 265 269 267 272 276 273 272 272 297 271 254
307 300 297 298 295 295 285 276 265 257 251 253 255 251 249 240 235 240 246 253 255 267 267 270 271 266 269 265 261 249 248 282 265
314 302 296 292 292 292 286 280 268 258 249 252 257 263 253 240 228 232 238 246 260 264 259 268 272 265 252 248 246 249 240 231 228
313 304 296 288 285 283 285 281 272 257 252 247 236 226 232 244 232 230 238 243 254 245 261 266 263 254 233 235 242 245 245 235 223
312 304 295 291 285 277 276 278 274 259 250 244 239 233 241 214 216 227 223 237 238 239 253 254 244 221 213 221 230 242 247 249 242
341 329 316 303 283 276 268 274 267 261 253 242 241 231 228 234 221 211 219 214 224 236 246 240 261 256 230 209 216 236 248 256 253